TimeIST,TemperatureF,Dew PointF,Humidity,Sea Level PressureIn,VisibilityMPH,Wind Direction,Wind SpeedMPH,Gust SpeedMPH,PrecipitationIn,Events,Conditions,WindDirDegrees,DateUTC
12:00 AM,46.4,42.8,87,29.74,-9999.0,WSW,6.9,-,N/A,,Scattered Clouds,250,2012-10-11 23:00:00
12:30 AM,46.4,44.6,93,29.74,6.2,WSW,5.8,-,N/A,,Scattered Clouds,250,2012-10-11 23:30:00
1:00 AM,46,43,84,29.75,12,SW,8.9,,,Rain,Light Rain Showers,230,2012-10-12 00:00:00
1:00 AM,46.4,44.6,93,29.74,6.2,SW,8.1,-,N/A,,Partly Cloudy,230,2012-10-12 00:00:00
1:30 AM,46.4,44.6,93,29.74,-9999.0,West,5.8,-,N/A,Rain,Light Rain Showers,270,2012-10-12 00:30:00
2:00 AM,46.4,44.6,93,29.74,6.2,West,6.9,-,N/A,Rain,Light Rain Showers,270,2012-10-12 01:00:00
2:30 AM,46.4,44.6,93,29.74,6.2,SW,5.8,-,N/A,,Mostly Cloudy,230,2012-10-12 01:30:00
3:00 AM,44.6,42.8,93,29.74,6.2,SW,5.8,-,N/A,,Scattered Clouds,220,2012-10-12 02:00:00
3:30 AM,44.6,44.6,100,29.74,6.2,SSW,6.9,-,N/A,,Partly Cloudy,210,2012-10-12 02:30:00
4:00 AM,44.6,42.8,93,29.74,6.2,WSW,5.8,-,N/A,,Partly Cloudy,240,2012-10-12 03:00:00
4:30 AM,44.6,42.8,93,29.71,6.2,WSW,6.9,-,N/A,,Partly Cloudy,250,2012-10-12 03:30:00
5:00 AM,44.6,41.0,87,29.74,6.2,North,9.2,-,N/A,,Scattered Clouds,350,2012-10-12 04:00:00
5:30 AM,44.6,42.8,93,29.74,6.2,NNW,4.6,-,N/A,Rain,Light Rain Showers,340,2012-10-12 04:30:00
6:00 AM,44.6,42.8,93,29.74,6.2,WSW,3.5,-,N/A,,Scattered Clouds,250,2012-10-12 05:00:00
6:30 AM,42.8,41.0,93,29.74,6.2,ESE,2.3,-,N/A,Rain,Light Rain Showers,110,2012-10-12 05:30:00
7:00 AM,43,42,95,29.75,12,SSW,6.7,,,Rain,Light Rain Showers,200,2012-10-12 06:00:00
7:00 AM,42.8,42.8,100,29.74,6.2,SSW,5.8,-,N/A,,Partly Cloudy,200,2012-10-12 06:00:00
7:30 AM,42.8,41.0,93,29.74,6.2,NE,3.5,-,N/A,,Partly Cloudy,40,2012-10-12 06:30:00
8:00 AM,42.8,41.0,93,29.74,6.2,SSW,3.5,-,N/A,,Scattered Clouds,200,2012-10-12 07:00:00
8:30 AM,42.8,41.0,93,29.74,6.2,NE,4.6,-,N/A,,Partly Cloudy,50,2012-10-12 07:30:00
9:00 AM,44.6,42.8,93,29.74,6.2,South,2.3,-,N/A,,Partly Cloudy,190,2012-10-12 08:00:00
9:30 AM,46.4,41.0,81,29.74,6.2,SSW,8.1,-,N/A,,Partly Cloudy,200,2012-10-12 08:30:00
10:00 AM,48.2,42.8,82,29.74,6.2,South,8.1,-,N/A,,Partly Cloudy,170,2012-10-12 09:00:00
10:30 AM,48.2,42.8,82,29.74,6.2,South,8.1,-,N/A,,Partly Cloudy,180,2012-10-12 09:30:00
11:00 AM,50.0,42.8,76,29.74,6.2,South,8.1,-,N/A,,Scattered Clouds,170,2012-10-12 10:00:00
11:30 AM,50.0,44.6,82,29.74,6.2,South,6.9,-,N/A,,Scattered Clouds,180,2012-10-12 10:30:00
12:00 PM,50.0,42.8,76,29.74,6.2,WSW,13.8,-,N/A,Rain,Light Rain Showers,240,2012-10-12 11:00:00
12:30 PM,50.0,44.6,82,29.71,6.2,West,8.1,-,N/A,Rain,Light Rain Showers,280,2012-10-12 11:30:00
1:00 PM,48,46,88,29.73,6,West,6.7,,,Rain,Light Rain Showers,270,2012-10-12 12:00:00
1:00 PM,48.2,46.4,93,29.71,6.2,West,5.8,-,N/A,Rain,Light Rain Showers,270,2012-10-12 12:00:00
1:30 PM,50.0,44.6,82,29.71,6.2,SSW,6.9,-,N/A,,Scattered Clouds,210,2012-10-12 12:30:00
2:00 PM,51.8,44.6,76,29.68,6.2,South,9.2,-,N/A,,Partly Cloudy,170,2012-10-12 13:00:00
2:30 PM,50.0,44.6,82,29.68,6.2,SSW,9.2,25.3,N/A,Rain,Light Rain Showers,210,2012-10-12 13:30:00
3:00 PM,48.2,46.4,93,29.68,6.2,WNW,5.8,-,N/A,,Scattered Clouds,290,2012-10-12 14:00:00
3:30 PM,50.0,46.4,87,29.68,6.2,SW,11.5,-,N/A,,Scattered Clouds,230,2012-10-12 14:30:00
4:00 PM,51.8,44.6,76,29.68,6.2,SW,11.5,-,N/A,,Mostly Cloudy,230,2012-10-12 15:00:00
4:30 PM,48.2,46.4,93,29.68,5.6,West,11.5,-,N/A,Rain,Light Rain Showers,270,2012-10-12 15:30:00
5:00 PM,48.2,46.4,93,29.68,6.2,SW,5.8,-,N/A,,Scattered Clouds,230,2012-10-12 16:00:00
5:30 PM,51.8,46.4,82,29.68,6.2,WSW,8.1,-,N/A,,Partly Cloudy,250,2012-10-12 16:30:00
6:00 PM,50.0,44.6,82,29.68,6.2,WSW,6.9,-,N/A,,Partly Cloudy,240,2012-10-12 17:00:00
6:30 PM,48.2,44.6,87,29.68,6.2,WSW,8.1,-,N/A,,Partly Cloudy,250,2012-10-12 17:30:00
7:00 PM,48,44,81,29.71,19,WSW,6.7,,,,Partly Cloudy,240,2012-10-12 18:00:00
7:00 PM,48.2,44.6,87,29.68,6.2,WSW,6.9,-,N/A,,Partly Cloudy,240,2012-10-12 18:00:00
7:30 PM,46.4,42.8,87,29.68,6.2,WNW,10.4,-,N/A,,Partly Cloudy,300,2012-10-12 18:30:00
8:00 PM,44.6,41.0,87,29.68,6.2,West,3.5,-,N/A,,Partly Cloudy,260,2012-10-12 19:00:00
8:30 PM,44.6,41.0,87,29.68,6.2,WSW,5.8,-,N/A,,Partly Cloudy,240,2012-10-12 19:30:00
9:00 PM,46.4,44.6,93,29.71,6.2,Variable,3.5,-,N/A,,Scattered Clouds,0,2012-10-12 20:00:00
9:30 PM,46.4,42.8,87,29.68,6.2,West,5.8,-,N/A,,Mostly Cloudy,270,2012-10-12 20:30:00
10:00 PM,46.4,42.8,87,29.71,6.2,West,5.8,-,N/A,,Mostly Cloudy,280,2012-10-12 21:00:00
10:30 PM,44.6,42.8,93,29.71,6.2,West,5.8,-,N/A,,Mostly Cloudy,270,2012-10-12 21:30:00
11:00 PM,44.6,42.8,93,29.71,6.2,WNW,6.9,-,N/A,,Mostly Cloudy,300,2012-10-12 22:00:00
11:30 PM,44.6,42.8,93,29.71,6.2,West,4.6,-,N/A,,Mostly Cloudy,270,2012-10-12 22:30:00